Location: Theydon Bois
(51.6750°N, 0.1050°E)
Time: 08:22:05
(UTC+00:00)

Envisat - Pass Details

Date: 17 December 2019
Orbit: 764 x 766 km, 98.1° (Epoch: 28 January)

Event Time Altitude Azimuth Distance (km) Brightness Sun altitude
Rises 18:17:16 0° 182° (S) 3,222 6.4 -21.4°
Reaches altitude 10° 18:19:39 10° 188° (S) 2,300 5.7 -21.7°
Maximum altitude 18:24:32 46° 262° (W) 1,025 4.0 -22.5°
Drops below altitude 10° 18:29:27 10° 335° (NNW) 2,317 5.7 -23.2°
Sets 18:31:51 0° 342° (NNW) 3,248 6.4 -23.6°
